Voltar ao catálogo

HULIANWANG DIGUI-16

AtivoComunicaçõesLEO
NORAD 62976·PAYLOAD·🇨🇳 China

Lançado Feb 11, 2025 de Wenchang Space Launch Site

Loading…

Próximas Passagens (próximas 24 horas)

TLE

AtualizadoSource: Space-Track

Época: Sep 14, 2026, 21:11 UTC

1 62976U 25030F   26257.88272881 -.00000091  00000-0  71255-4 0  9991
2 62976  50.0041 273.9283 0000340  15.8572 344.2310 13.29327949 77797

Acompanhe HULIANWANG DIGUI-16 em tempo real com AllMySat

Download on the App Store